Talkeetna, AK

6:03 PM AKST on January 20, 2018 (GMT -0900)
Talkeetna

Weather History for PATK - November, 2013

Change the Weather History Date:

Saturday, November 16, 2013

  Actual Average Record
Temperature  
Mean Temperature 8 °F -  
Max Temperature 19 °F 23 °F 40 °F (1957)
Min Temperature -5 °F 7 °F -38 °F (1956)
Degree Days  
Heating Degree Days 56    
Moisture  
Dew Point 4 °F    
Average Humidity 79    
Maximum Humidity 88    
Minimum Humidity 52    
Precipitation  
Precipitation 0.00 in - - ()
Sea Level Pressure  
Sea Level Pressure 30.17 in    
Wind  
Wind Speed 1 mph (NE)    
Max Wind Speed 6 mph    
Max Gust Speed -    
Visibility 10 miles    
Events      
Averages and records for this station are not official NWS values.
T = Trace of Precipitation, MM = Missing Value Source: NWS Daily Summary

Daily Weather History Graph

Daily Weather History Graph

Search for Another Location

Airport or City:

Trip Planner

Search our weather history database for the weather conditions in past years. The results will help you decide how hot, cold, wet, or windy it might be!

Date:

Astronomy

Nov. 16, 2013 Rise Set
Actual Time 9:18 AM AKST 4:11 PM AKST
Civil Twilight 8:23 AM AKST 5:06 PM AKST
Nautical Twilight 7:26 AM AKST 6:03 PM AKST
Astronomical Twilight 6:33 AM AKST 6:56 PM AKST
Moon 4:04 PM AKST (11/16) 8:09 AM AKST (11/16)
Length of Visible Light 8h 43m
Length of Day
6h 52m
Waxing Gibbous, 99% of the Moon is Illuminated
Nov 16
Waxing Gibbous
Nov 17
Full
Nov 25
Last Quarter
Dec 2
New
Dec 9
First Quarter

Hourly Weather History & Observations

Time (AKST) Temp. Windchill Dew Point Humidity Pressure Visibility Wind Dir Wind Speed Gust Speed Precip Events Conditions
12:53 AM 14.0 °F - 10.9 °F 88% 30.02 in 10.0 mi Calm Calm - N/A   Overcast
1:53 AM 14.0 °F - 10.9 °F 88% 30.04 in 10.0 mi Calm Calm - N/A   Overcast
2:53 AM 15.1 °F - 12.0 °F 88% 30.06 in 10.0 mi Calm Calm - N/A   Overcast
3:53 AM 14.0 °F - 10.9 °F 88% 30.08 in 9.0 mi Calm Calm - N/A   Overcast
4:53 AM 12.9 °F - 10.0 °F 88% 30.09 in 10.0 mi Calm Calm - N/A   Overcast
5:53 AM 12.9 °F - 9.0 °F 84% 30.11 in 10.0 mi Calm Calm - N/A   Scattered Clouds
6:53 AM 10.0 °F - 7.0 °F 87% 30.13 in 10.0 mi Calm Calm - N/A   Clear
7:53 AM 19.0 °F 11.1 °F 8.1 °F 62% 30.15 in 10.0 mi NNW 5.8 mph - N/A   Mostly Cloudy
8:53 AM 12.0 °F - 7.0 °F 80% 30.16 in 10.0 mi Calm Calm - N/A   Scattered Clouds
9:53 AM 8.1 °F - 3.9 °F 83% 30.18 in 10.0 mi Calm Calm - N/A   Partly Cloudy
10:53 AM 9.0 °F - 3.9 °F 80% 30.18 in 10.0 mi Calm Calm - N/A   Partly Cloudy
11:53 AM 12.9 °F - 7.0 °F 77% 30.18 in 10.0 mi Calm Calm - N/A   Partly Cloudy
12:53 PM 12.9 °F 6.9 °F 7.0 °F 77% 30.17 in 10.0 mi East 3.5 mph - N/A   Partly Cloudy
1:53 PM 16.0 °F 10.4 °F 7.0 °F 68% 30.18 in 10.0 mi NE 3.5 mph - N/A   Partly Cloudy
2:53 PM 16.0 °F - 6.1 °F 65% 30.19 in 10.0 mi Calm Calm - N/A   Partly Cloudy
3:53 PM 10.9 °F - 6.1 °F 81% 30.19 in 10.0 mi Calm Calm - N/A   Partly Cloudy
4:53 PM 7.0 °F 0.1 °F 3.0 °F 84% 30.20 in 10.0 mi ENE 3.5 mph - N/A   Scattered Clouds
5:53 PM 5.0 °F - -0.0 °F 80% 30.22 in 10.0 mi Calm Calm - N/A   Clear
6:53 PM 1.9 °F - -2.9 °F 80% 30.24 in 10.0 mi Calm Calm - N/A   Mostly Cloudy
7:53 PM 1.9 °F - -2.0 °F 83% 30.25 in 10.0 mi Calm Calm - N/A   Partly Cloudy
8:53 PM 3.0 °F -4.4 °F -2.0 °F 80% 30.27 in 10.0 mi NNE 3.5 mph - N/A   Clear
9:53 PM -0.0 °F - -4.0 °F 83% 30.28 in 10.0 mi Calm Calm - N/A   Clear
10:53 PM -2.9 °F - -7.1 °F 82% 30.28 in 10.0 mi Calm Calm - N/A   Clear
11:53 PM -5.1 °F -13.6 °F -9.0 °F 83% 30.30 in 10.0 mi ENE 3.5 mph - N/A   Clear